TimeEST,TemperatureF,Dew PointF,Humidity,Sea Level PressureIn,VisibilityMPH,Wind Direction,Wind SpeedMPH,Gust SpeedMPH,PrecipitationIn,Events,Conditions,WindDirDegrees,DateUTC
12:54 AM,14.0,10.0,84,30.45,10.0,WNW,4.6,-,N/A,,Clear,290,2013-01-15 05:54:00
1:54 AM,17.1,10.9,77,30.45,10.0,Calm,Calm,-,N/A,,Clear,0,2013-01-15 06:54:00
2:54 AM,15.1,10.9,84,30.45,10.0,South,3.5,-,N/A,,Clear,190,2013-01-15 07:54:00
3:54 AM,15.1,10.9,84,30.44,9.0,Calm,Calm,-,N/A,,Clear,0,2013-01-15 08:54:00
4:54 AM,15.1,10.0,80,30.43,9.0,Calm,Calm,-,N/A,,Clear,0,2013-01-15 09:54:00
5:54 AM,15.1,10.0,80,30.43,9.0,Calm,Calm,-,N/A,,Clear,0,2013-01-15 10:54:00
6:54 AM,15.1,10.9,84,30.42,8.0,Calm,Calm,-,N/A,,Clear,0,2013-01-15 11:54:00
7:54 AM,12.9,9.0,84,30.45,8.0,South,4.6,-,N/A,,Clear,180,2013-01-15 12:54:00
8:54 AM,16.0,12.0,84,30.45,7.0,Calm,Calm,-,N/A,,Clear,0,2013-01-15 13:54:00
9:54 AM,19.0,15.1,85,30.45,7.0,Calm,Calm,-,N/A,,Clear,0,2013-01-15 14:54:00
10:54 AM,24.1,18.0,77,30.46,8.0,Calm,Calm,-,N/A,,Clear,0,2013-01-15 15:54:00
11:54 AM,27.0,19.0,72,30.42,10.0,SE,4.6,-,N/A,,Partly Cloudy,130,2013-01-15 16:54:00
12:54 PM,28.9,17.1,61,30.39,10.0,SE,8.1,-,N/A,,Partly Cloudy,140,2013-01-15 17:54:00
1:54 PM,28.9,17.1,61,30.35,10.0,Calm,Calm,-,N/A,,Clear,0,2013-01-15 18:54:00
2:54 PM,28.9,15.1,56,30.34,10.0,Calm,Calm,-,N/A,,Clear,0,2013-01-15 19:54:00
3:54 PM,30.2,15.8,55,30.28,10.0,Calm,Calm,-,N/A,,Clear,0,2013-01-15 20:54:00
4:54 PM,28.9,17.1,61,30.33,10.0,SSE,4.6,-,N/A,,Clear,150,2013-01-15 21:54:00
5:54 PM,28.0,18.0,66,30.32,10.0,South,8.1,-,N/A,,Clear,170,2013-01-15 22:54:00
6:54 PM,26.1,18.0,71,30.30,10.0,Calm,Calm,-,N/A,,Clear,0,2013-01-15 23:54:00
7:54 PM,23.0,17.1,78,30.28,10.0,Calm,Calm,-,N/A,,Clear,0,2013-01-16 00:54:00
8:54 PM,21.9,17.1,82,30.24,10.0,Calm,Calm,-,N/A,,Clear,0,2013-01-16 01:54:00
9:54 PM,21.9,17.1,82,30.23,10.0,Calm,Calm,-,N/A,,Clear,0,2013-01-16 02:54:00
10:54 PM,19.0,15.1,85,30.20,9.0,Calm,Calm,-,N/A,,Clear,0,2013-01-16 03:54:00
11:54 PM,19.0,15.1,85,30.18,8.0,North,4.6,-,N/A,,Clear,350,2013-01-16 04:54:00